Regional Weather Roundup
Issued by NWS

Home | Current Version | Previous Version | Text Only | Print | Product List | Glossary On
Versions: 1 2 3 4 5 6 7 8 9 10 11 12 13 14 15 16 17 18 19 20 21 22 23 24 25 26 27 28 29 30 31 32 33 34 35 36 37 38 39 40 41 42 43 44 45 46 47 48 49 50
000
ASUS44 KBMX 051110
RWRAL

ALABAMA REGIONAL WEATHER ROUNDUP
NATIONAL WEATHER SERVICE BIRMINGHAM AL
600 AM CDT SAT SEP 05 2015

NOTE: "FAIR" INDICATES FEW OR NO CLOUDS BELOW 12,000 FEET
WITH NO SIGNIFICANT WEATHER AND/OR OBSTRUCTIONS TO VISIBILITY.

THE REMARK "TC" DENOTES TEMPERATURE IN DEGREES CELSIUS.

ALZ001>011-014-016>018-020-051200-
NORTH ALABAMA

CITY           SKY/WX    TMP DP  RH WIND       PRES   REMARKS
MUSCLE SHOALS  FOG       68  66  93 CALM      30.06R VSB 1/2
HUNTSVILLE     PTCLDY    72  68  87 CALM      30.06R
DECATUR        CLEAR     68  68 100 E3        30.06R FOG
HALEYVILLE     FAIR      68  68 100 CALM      30.09R FOG
GADSDEN        CLEAR     70  64  83 N5        30.05R
$$

ALZ012-013-022-023-030>036-040>044-051200-
WEST CENTRAL ALABAMA

CITY           SKY/WX    TMP DP  RH WIND       PRES   REMARKS
TUSCALOOSA     CLEAR     72  70  93 CALM      30.02R FOG
$$

ALZ015-024>027-033>036-040>044-051200-
CENTRAL ALABAMA

CITY           SKY/WX    TMP DP  RH WIND       PRES   REMARKS
BIRMINGHAM     CLEAR     77  68  73 NE5       30.06R
MONTGOMERY     CLEAR     73  71  93 CALM      30.01R FOG
SHELBY CO ARPT CLEAR     75  70  84 CALM      30.04R
MAXWELL AFB    CLEAR     74  73  97 CALM      30.01R FOG
GREENVILLE     FAIR      71  67  87 CALM      30.02
$$

ALZ019-021-028-029-037-038-045>048-051200-
EAST CENTRAL ALABAMA

CITY           SKY/WX    TMP DP  RH WIND       PRES   REMARKS
ANNISTON       CLEAR     73  68  84 NE5       30.06R
ALEXANDER CITY CLEAR     74  72  91 CALM      30.05R
AUBURN         CLEAR     75  70  84 E7        30.06R
$$

ALZ051>064-051200-
SOUTHWEST ALABAMA

CITY           SKY/WX    TMP DP  RH WIND       PRES   REMARKS
MOBILE         PTCLDY    74  74 100 NW5       30.01R
BROOKLEY FIELD PTCLDY    76  73  91 W3        30.01R
EVERGREEN      CLEAR     72  70  93 CALM      30.01R FOG
$$

ALZ049-050-065>069-051200-
SOUTHEAST ALABAMA

CITY           SKY/WX    TMP DP  RH WIND       PRES   REMARKS
DOTHAN         CLEAR     72  71  97 CALM      30.03R FOG
OZARK          CLEAR     73  72  99 W3        29.99R
TROY           CLEAR     71  69  93 CALM      30.02R
EUFAULA        FAIR      74  72  93 CALM      30.01R
$$


USA.gov is the U.S. government's official web portal to all federal, state and local government web resources and services.